SCP
-0 -0 -0 -0 -0 -0 -0 -0 -0 -0 -0 0 0 -0 0 0 -0 -0 -0 -0 -0 -0 -0 -0 -0 0 0 0 -0 -0 -0 -0 -0 0 -0 -0 -0 -0 -0 -0 -0 -0 -0
0 -0 -0 -0 -0 -0 -0 -0 -0 -0 -0 0 0 0 0 0 -0 -0 -0 0 -0 -0 -0 -0 -0 0 0 0 0 0 0 0 0 0 0 0 0 0 -0 -0 -0 -0 -0
0 -0 -0 -0 -0 -0 -0 -0 -0 -0 -0 -0 -0 0 0 0 0 -0 0 0 0 -0 -0 -0 -0 -0 0 0 0 0 0 0 0 0 0 0 0 0 0 0 0 -0 -0
-0 -0 -0 -0 -0 -0 -0 -0 -0 -0 -0 -0 -0 -0 0 0 0 0 0 0 0 0 0 -0 0 0 0 0 0 0 0 0 0 -0 0 0 0 0 0 0 0 0 0
-0 -0 -0 -0 -0 -0 -0 -0 -0 -0 -0 -0 -0 -0 -0 -0 0 0 0 0 0 0 0 0 0 0 0 0 0 0 0 0 0 -0 0 0 0 0 0 0 0 0 0
-0 -0 -0 -0 -0 -0 -0 -0 -0 -0 -0 -0 -0 -0 -0 -0 -0 -0 0 0 0 0 0 0 0 0 0 0 0 0 0 0 0 0 0 0 0 0 0 0 0 0 0
0 -0 -0 0 -0 -0 -0 -0 -0 -0 -0 -0 -0 -0 -0 -0 -0 -0 0 0 0 0 0 0 0 0 0 0 0 0 0 0 0 0 0 0 0 0 0 0 0 0 0
0 -0 -0 -0 -0 -0 -0 -0 -0 -0 -0 -0 -0 0 0 0 0 0 0 0 0 0 0 0 0 0 0 0 0 0 0 0 0 0 0 0 0 0 0 0 0 0 0
-0 0 0 0 0 -0 -0 0 -0 0 0 0 0 0 0 0 0 0 0 0 0 0 0 0 0 0 0 0 0 0 0 0 0 0 0 0 0 0 0 0 0 0 0
-0 0 0 0 -0 -0 0 -0 0 0 0 0 0 0 0 0 0 0 0 0 0 0 0 0 0 0 0 0 0 0 0 0 0 0 0 0 0 0 0 0 0 0 0
0 0 0 0 0 0 0 0 0 0 0 0 0 0 0 0 0 0 0 0 0 0 0 0 0 0 0 0 0 0 0 0 0 0 0 0 0 0 0 0 0 0 0
0 0 0 0 0 0 0 0 0 0 0 0 0 0 0 0 0 0 0 0 0 0 0 0 0 0 0 0 0 0 0 0 0 0 0 0 0 0 0 0 0 0 0
0 0 0 0 0 0 0 0 0 0 0 0 0 0 0 0 0 0 0 0 0 0 0 0 0 0 0 0 0 0 0 0 0 0 0 0 0 0 0 0 0 0 0
0 0 0 0 0 0 0 0 0 0 0 0 0 0 0 0 0 0 0 0 0 0 0 0 0 0 0 0 0 0 0 0 0 0 0 0 0 0 0 0 0 0 0
0 0 0 0 0 0 0 0 0 0 0 0 0 0 0 0 0 0 0 0 0 0 0 0 0 0 0 0 0 0 0 0 0 0 0 0 0 0 0 0 0 0 0
0 0 0 0 0 0 0 0 0 0 0 0 0 0 0 0 0 0 0 0 0 0 0 0 0 0 0 0 0 0 0 0 0 0 0 0 0 0 0 0 0 0 0
0 0 0 0 0 0 0 0 0 0 0 0 0 0 0 0 0 0 0 0 0 0 0 0 0 0 0 0 0 0 0 0 0 0 0 0 0 0 0 0 0 0 0
0 0 0 0 0 0 0 0 0 0 0 0 0 0 0 0 0 0 0 0 0 0 0 0 0 0 0 0 0 0 0 0 0 0 0 0 0 0 0 0 0 0 0
0 0 0 0 0 0 0 0 0 0 0 0 0 0 0 0 0 0 0 0 0 0 0 0 0 0 0 0 0 0 0 0 0 0 0 0 0 0 0 0 0 0 0
0 0 0 0 0 0 0 0 0 0 0 0 0 0 0 0 0 0 0 0 0 0 0 0 0 0 0 0 0 -0 0 0 0 0 0 0 0 0 0 0 0 0 0
0 0 0 0 0 0 0 0 0 0 0 0 0 0 0 0 0 0 0 0 0 0 0 0 0 0 0 0 0 0 0 0 0 0 0 0 0 0 0 0 0 0 0
0 0 0 0 0 0 0 0 0 0 0 0 0 0 0 0 0 0 0 0 0 0 0 0 0 0 0 0 0 0 0 0 0 0 0 0 0 0 0 0 0 0 0
0 0 0 0 0 0 0 0 0 0 0 0 0 0 0 0 0 0 0 0 0 0 0 0 0 0 0 0 0 0 0 0 0 0 0 0 0 0 0 0 0 0 0
0 0 0 0 0 0 0 0 0 0 0 0 0 0 0 0 0 0 0 0 0 0 0 0 0 0 0 0 0 0 0 0 0 0 0 0 0 0 0 0 0 0 0
0 0 0 0 0 0 0 0 0 0 0 0 0 0 0 0 0 0 0 0 0 0 0 0 0 0 0 0 0 0 0 0 0 0 0 0 0 0 0 0 0 0 0
0 0 0 0 0 0 0 0 0 0 0 0 0 0 0 0 0 0 0 0 0 0 0 0 0 0 0 0 0 0 0 0 0 0 0 0 0 0 0 0 0 0 0
Wind_Speed_500mb
22 38 35 31 27 24 24 19 16 15 11 11 11 11 10 11 13 14 17 19 23 18 13 13 12 10 12 13 10 7 11 11 10 11 11 10 14 16 20 19 19 12 12
18 40 36 33 28 24 23 20 16 11 7 5 9 11 10 10 7 8 12 17 22 21 13 12 13 12 10 8 7 11 10 8 9 10 11 9 6 9 11 13 16 20 16
17 38 36 34 29 27 24 19 14 12 8 4 4 6 6 2 4 7 11 15 19 22 13 9 10 10 10 9 9 8 7 6 8 10 11 13 9 4 2 2 3 8 12
21 36 33 34 29 27 25 21 18 14 8 4 2 1 1 3 4 8 12 18 20 21 20 10 7 7 7 6 5 5 5 6 8 9 12 13 14 13 5 2 2 3 1
17 33 34 33 29 25 21 20 20 16 12 9 6 4 4 4 5 8 14 21 22 21 19 11 6 5 5 4 3 2 2 4 6 7 9 8 10 9 12 10 7 7 9
13 28 32 32 27 24 23 19 18 20 16 12 9 7 4 5 3 5 13 20 23 20 15 9 6 5 5 6 7 6 5 3 2 4 6 7 6 13 13 12 9 7 6
12 17 27 31 30 27 23 22 21 19 14 11 11 9 4 2 3 8 14 18 23 22 16 8 5 4 5 6 7 7 7 5 4 6 6 6 10 14 15 15 12 8 1
12 15 17 25 30 28 26 24 25 19 16 11 8 7 8 7 4 7 12 16 19 22 18 9 7 8 7 6 5 6 7 6 5 7 8 9 11 14 15 14 12 11 7
11 15 17 20 28 32 31 30 24 20 14 14 14 12 13 11 15 13 11 12 16 15 16 10 8 9 9 7 4 2 3 4 4 6 7 9 9 10 11 12 12 11 10
11 15 19 21 22 29 34 36 32 27 23 19 21 16 20 18 21 19 17 16 16 17 17 16 14 11 9 5 4 4 4 4 5 6 7 8 9 10 12 11 11 11 11
15 16 18 21 24 26 31 37 40 37 31 29 27 27 24 24 24 23 22 23 16 19 18 14 13 12 11 9 7 7 7 8 8 9 10 10 10 11 12 12 11 11 11
19 22 25 25 26 26 25 28 28 31 32 29 28 27 26 26 27 26 19 20 18 24 26 24 19 16 15 13 11 11 11 11 11 12 13 13 13 13 14 14 13 13 12
16 18 25 30 31 30 28 24 23 26 26 24 23 26 24 25 23 25 26 25 23 24 23 28 28 28 21 20 19 17 16 15 15 15 15 15 15 15 15 16 15 15 16
7 10 13 16 25 32 33 29 24 20 19 22 20 24 25 27 28 26 27 22 27 26 27 27 28 31 24 23 22 22 22 22 21 20 20 18 17 17 17 18 18 17 17
11 13 15 18 21 26 33 31 23 16 14 20 26 23 23 19 23 23 25 22 24 25 29 24 27 29 35 29 26 24 25 26 26 26 26 25 23 22 21 20 19 18 19
11 14 16 19 20 21 26 29 25 23 24 20 17 18 19 25 25 27 25 17 20 24 25 23 26 25 29 29 31 27 26 28 29 30 30 29 30 29 27 25 23 22 17
10 8 8 8 9 14 28 35 32 25 15 11 9 7 11 16 20 29 14 14 21 26 32 29 20 25 31 33 37 29 28 29 31 32 34 34 34 34 33 32 30 28 27
10 8 7 6 9 15 29 35 34 25 21 13 6 1 7 10 13 22 23 28 29 33 32 32 25 26 27 29 34 38 36 37 38 36 37 38 38 38 37 36 36 34 32
18 22 23 23 27 31 37 36 33 23 18 11 4 5 11 13 13 17 16 10 11 16 16 18 19 24 29 34 37 39 38 38 41 50 50 46 45 46 45 42 40 38 37
33 40 41 40 41 37 37 35 33 29 20 13 8 3 1 4 7 10 10 13 15 16 15 19 17 21 29 28 33 37 39 40 46 46 54 54 51 49 48 48 48 46 40
36 40 44 45 46 43 39 33 32 26 21 11 9 9 6 4 5 7 10 13 15 15 20 20 20 26 28 35 42 45 47 47 36 36 43 39 32 30 32 37 43 49 50
43 43 42 41 40 38 36 36 34 35 37 32 25 18 14 9 5 4 6 10 11 13 15 17 20 21 25 30 29 33 17 21 27 22 30 34 40 42 42 39 37 37 41
56 56 54 51 48 46 43 40 38 33 30 26 23 18 15 15 14 13 13 14 15 16 18 22 22 21 22 25 27 17 14 12 39 15 26 33 34 40 48 50 48 45 41
54 51 46 43 39 35 32 30 26 27 27 27 23 21 17 15 15 15 16 17 19 21 21 24 26 26 28 29 24 23 19 24 16 30 27 40 37 44 43 44 51 54 55
48 44 41 37 35 34 31 26 22 23 25 26 23 17 14 13 13 14 16 18 20 22 24 25 26 28 30 30 32 33 30 24 16 24 45 45 56 49 50 39 49 46 45
43 39 36 32 33 30 24 21 18 21 23 21 18 12 10 9 12 14 17 19 21 22 24 26 28 29 30 31 32 33 33 32 28 27 39 47 60 53 68 69 52 48 39
Wind_Direction_500mb
185 183 181 177 171 168 164 163 156 148 130 107 94 89 82 81 78 42 23 17 16 16 36 47 58 61 97 124 111 116 96 80 62 57 62 69 78 81 86 91 86 87 88
191 185 185 184 178 174 175 170 170 169 154 108 86 93 86 94 56 20 5 8 10 24 36 46 59 62 61 66 63 61 83 65 48 35 28 26 45 69 85 87 78 80 82
184 187 182 180 180 185 184 187 190 182 175 139 91 86 103 54 1 344 351 3 11 28 21 45 58 66 63 57 57 59 53 32 24 31 40 50 24 34 74 89 67 65 73
166 184 184 181 177 184 181 190 193 197 209 213 184 192 282 315 320 333 343 2 13 13 20 0 37 55 61 60 57 46 32 22 25 31 52 57 42 53 41 6 294 268 273
151 179 187 190 186 181 179 191 201 213 221 220 236 253 279 294 311 335 336 346 349 356 2 349 353 7 7 349 342 23 354 355 13 37 43 51 49 26 28 21 356 281 259
148 178 187 191 194 194 196 205 204 197 203 213 236 249 265 288 295 320 329 335 334 336 340 338 331 329 322 305 299 296 285 299 345 5 40 19 27 342 349 349 342 326 272
136 171 191 197 199 199 199 205 208 197 205 225 246 234 230 233 298 326 331 338 342 339 339 329 312 317 309 299 293 287 280 272 277 290 297 314 306 323 331 336 340 349 303
144 163 185 203 207 209 208 218 213 205 207 228 226 242 249 252 329 327 330 332 343 352 352 348 341 327 323 303 283 265 266 267 268 276 286 294 306 314 322 334 336 337 331
151 168 182 195 207 211 215 225 227 226 232 246 237 268 227 262 298 303 313 319 334 343 3 20 354 345 341 335 322 276 234 234 247 263 276 285 298 303 314 322 323 320 315
185 182 189 198 205 213 214 220 229 235 234 243 247 258 243 249 268 289 295 300 313 328 337 355 354 344 338 325 304 296 286 266 259 263 273 285 294 300 306 309 309 308 308
220 221 221 218 211 214 219 218 221 225 232 236 238 243 250 252 264 281 288 292 311 307 308 321 335 331 322 310 292 281 276 280 284 287 289 290 291 294 296 300 303 306 304
239 242 243 240 233 226 222 224 222 220 228 235 236 246 250 253 269 277 282 306 305 316 320 319 311 314 314 301 279 268 268 273 280 284 287 291 294 297 300 304 307 306 299
239 247 251 249 244 239 230 220 223 222 221 231 236 237 252 266 277 276 290 297 301 306 320 326 324 326 307 305 295 285 280 278 279 282 286 289 292 296 298 301 305 306 306
250 251 257 257 243 236 233 224 213 213 215 220 233 247 248 263 263 275 283 299 303 302 306 313 324 321 322 304 298 290 285 286 286 286 285 283 284 288 291 295 301 305 305
294 284 271 258 247 240 232 219 202 196 194 203 219 226 238 252 270 274 282 290 297 297 301 306 312 325 324 313 303 296 289 285 284 284 285 284 282 280 280 282 284 290 298
292 284 276 267 256 236 215 203 183 187 193 198 215 227 231 240 245 255 262 284 286 275 277 284 295 308 322 319 309 299 296 291 287 283 280 278 278 276 275 275 275 273 270
314 304 274 248 234 196 186 176 173 186 183 189 187 201 224 253 252 260 242 259 272 271 262 277 272 299 309 313 311 293 294 297 294 287 282 280 277 276 276 274 272 269 267
42 47 59 81 108 141 160 161 167 175 173 172 161 85 300 295 297 291 289 270 266 274 269 262 274 286 294 298 305 308 308 308 302 300 293 287 280 273 270 271 273 273 270
91 94 99 111 116 129 144 153 158 150 163 162 173 290 294 306 303 296 293 1 351 340 319 294 275 286 296 297 296 297 295 299 307 308 302 300 293 286 279 271 266 268 271
108 106 104 108 111 116 123 130 134 137 143 148 139 126 132 334 340 348 329 334 332 330 320 314 324 312 310 309 308 302 299 298 299 298 302 303 298 290 283 279 274 268 264
114 112 113 113 114 118 121 126 129 129 118 118 106 94 81 40 347 339 331 319 315 312 316 314 313 311 308 305 305 298 299 298 292 293 297 297 293 302 300 291 281 273 268
122 121 118 116 118 121 121 121 118 113 111 106 99 98 86 69 52 16 344 337 332 327 313 311 312 315 314 320 325 327 323 312 297 299 290 288 291 294 290 293 300 298 287
119 116 112 110 110 108 106 107 110 112 108 104 98 87 73 52 37 26 16 10 0 353 349 350 346 340 342 344 346 358 336 321 324 300 304 294 294 292 292 287 284 283 285
117 114 112 110 110 110 114 117 117 119 121 108 95 78 57 45 32 27 23 19 15 14 9 9 7 5 2 354 356 358 340 317 320 315 310 316 309 313 310 307 297 288 279
125 122 116 112 110 110 113 116 118 119 113 99 88 78 64 44 31 22 19 18 11 9 8 5 359 358 356 354 353 350 345 342 326 307 307 311 310 315 313 314 315 312 304
135 130 121 116 113 114 118 118 119 113 103 93 82 62 45 30 20 10 7 3 5 0 356 356 355 353 352 348 344 341 338 336 321 315 305 307 310 316 309 312 315 316 313
Wind_Speed_850mb
22 38 35 31 27 24 24 19 16 15 11 11 11 11 10 11 13 14 17 19 23 18 13 13 12 10 12 13 10 7 11 11 10 11 11 10 14 16 20 19 19 12 12
18 40 36 33 28 24 23 20 16 11 7 5 9 11 10 10 7 8 12 17 22 21 13 12 13 12 10 8 7 11 10 8 9 10 11 9 6 9 11 13 16 20 16
17 38 36 34 29 27 24 19 14 12 8 4 4 6 6 2 4 7 11 15 19 22 13 9 10 10 10 9 9 8 7 6 8 10 11 13 9 4 2 2 3 8 12
21 36 33 34 29 27 25 21 18 14 8 4 2 1 1 3 4 8 12 18 20 21 20 10 7 7 7 6 5 5 5 6 8 9 12 13 14 13 5 2 2 3 1
17 33 34 33 29 25 21 20 20 16 12 9 6 4 4 4 5 8 14 21 22 21 19 11 6 5 5 4 3 2 2 4 6 7 9 8 10 9 12 10 7 7 9
13 28 32 32 27 24 23 19 18 20 16 12 9 7 4 5 3 5 13 20 23 20 15 9 6 5 5 6 7 6 5 3 2 4 6 7 6 13 13 12 9 7 6
12 17 27 31 30 27 23 22 21 19 14 11 11 9 4 2 3 8 14 18 23 22 16 8 5 4 5 6 7 7 7 5 4 6 6 6 10 14 15 15 12 8 1
12 15 17 25 30 28 26 24 25 19 16 11 8 7 8 7 4 7 12 16 19 22 18 9 7 8 7 6 5 6 7 6 5 7 8 9 11 14 15 14 12 11 7
11 15 17 20 28 32 31 30 24 20 14 14 14 12 13 11 15 13 11 12 16 15 16 10 8 9 9 7 4 2 3 4 4 6 7 9 9 10 11 12 12 11 10
11 15 19 21 22 29 34 36 32 27 23 19 21 16 20 18 21 19 17 16 16 17 17 16 14 11 9 5 4 4 4 4 5 6 7 8 9 10 12 11 11 11 11
15 16 18 21 24 26 31 37 40 37 31 29 27 27 24 24 24 23 22 23 16 19 18 14 13 12 11 9 7 7 7 8 8 9 10 10 10 11 12 12 11 11 11
19 22 25 25 26 26 25 28 28 31 32 29 28 27 26 26 27 26 19 20 18 24 26 24 19 16 15 13 11 11 11 11 11 12 13 13 13 13 14 14 13 13 12
16 18 25 30 31 30 28 24 23 26 26 24 23 26 24 25 23 25 26 25 23 24 23 28 28 28 21 20 19 17 16 15 15 15 15 15 15 15 15 16 15 15 16
7 10 13 16 25 32 33 29 24 20 19 22 20 24 25 27 28 26 27 22 27 26 27 27 28 31 24 23 22 22 22 22 21 20 20 18 17 17 17 18 18 17 17
11 13 15 18 21 26 33 31 23 16 14 20 26 23 23 19 23 23 25 22 24 25 29 24 27 29 35 29 26 24 25 26 26 26 26 25 23 22 21 20 19 18 19
11 14 16 19 20 21 26 29 25 23 24 20 17 18 19 25 25 27 25 17 20 24 25 23 26 25 29 29 31 27 26 28 29 30 30 29 30 29 27 25 23 22 17
10 8 8 8 9 14 28 35 32 25 15 11 9 7 11 16 20 29 14 14 21 26 32 29 20 25 31 33 37 29 28 29 31 32 34 34 34 34 33 32 30 28 27
10 8 7 6 9 15 29 35 34 25 21 13 6 1 7 10 13 22 23 28 29 33 32 32 25 26 27 29 34 38 36 37 38 36 37 38 38 38 37 36 36 34 32
18 22 23 23 27 31 37 36 33 23 18 11 4 5 11 13 13 17 16 10 11 16 16 18 19 24 29 34 37 39 38 38 41 50 50 46 45 46 45 42 40 38 37
33 40 41 40 41 37 37 35 33 29 20 13 8 3 1 4 7 10 10 13 15 16 15 19 17 21 29 28 33 37 39 40 46 46 54 54 51 49 48 48 48 46 40
36 40 44 45 46 43 39 33 32 26 21 11 9 9 6 4 5 7 10 13 15 15 20 20 20 26 28 35 42 45 47 47 36 36 43 39 32 30 32 37 43 49 50
43 43 42 41 40 38 36 36 34 35 37 32 25 18 14 9 5 4 6 10 11 13 15 17 20 21 25 30 29 33 17 21 27 22 30 34 40 42 42 39 37 37 41
56 56 54 51 48 46 43 40 38 33 30 26 23 18 15 15 14 13 13 14 15 16 18 22 22 21 22 25 27 17 14 12 39 15 26 33 34 40 48 50 48 45 41
54 51 46 43 39 35 32 30 26 27 27 27 23 21 17 15 15 15 16 17 19 21 21 24 26 26 28 29 24 23 19 24 16 30 27 40 37 44 43 44 51 54 55
48 44 41 37 35 34 31 26 22 23 25 26 23 17 14 13 13 14 16 18 20 22 24 25 26 28 30 30 32 33 30 24 16 24 45 45 56 49 50 39 49 46 45
43 39 36 32 33 30 24 21 18 21 23 21 18 12 10 9 12 14 17 19 21 22 24 26 28 29 30 31 32 33 33 32 28 27 39 47 60 53 68 69 52 48 39
Wind_Direction_850mb
185 183 181 177 171 168 164 163 156 148 130 107 94 89 82 81 78 42 23 17 16 16 36 47 58 61 97 124 111 116 96 80 62 57 62 69 78 81 86 91 86 87 88
191 185 185 184 178 174 175 170 170 169 154 108 86 93 86 94 56 20 5 8 10 24 36 46 59 62 61 66 63 61 83 65 48 35 28 26 45 69 85 87 78 80 82
184 187 182 180 180 185 184 187 190 182 175 139 91 86 103 54 1 344 351 3 11 28 21 45 58 66 63 57 57 59 53 32 24 31 40 50 24 34 74 89 67 65 73
166 184 184 181 177 184 181 190 193 197 209 213 184 192 282 315 320 333 343 2 13 13 20 0 37 55 61 60 57 46 32 22 25 31 52 57 42 53 41 6 294 268 273
151 179 187 190 186 181 179 191 201 213 221 220 236 253 279 294 311 335 336 346 349 356 2 349 353 7 7 349 342 23 354 355 13 37 43 51 49 26 28 21 356 281 259
148 178 187 191 194 194 196 205 204 197 203 213 236 249 265 288 295 320 329 335 334 336 340 338 331 329 322 305 299 296 285 299 345 5 40 19 27 342 349 349 342 326 272
136 171 191 197 199 199 199 205 208 197 205 225 246 234 230 233 298 326 331 338 342 339 339 329 312 317 309 299 293 287 280 272 277 290 297 314 306 323 331 336 340 349 303
144 163 185 203 207 209 208 218 213 205 207 228 226 242 249 252 329 327 330 332 343 352 352 348 341 327 323 303 283 265 266 267 268 276 286 294 306 314 322 334 336 337 331
151 168 182 195 207 211 215 225 227 226 232 246 237 268 227 262 298 303 313 319 334 343 3 20 354 345 341 335 322 276 234 234 247 263 276 285 298 303 314 322 323 320 315
185 182 189 198 205 213 214 220 229 235 234 243 247 258 243 249 268 289 295 300 313 328 337 355 354 344 338 325 304 296 286 266 259 263 273 285 294 300 306 309 309 308 308
220 221 221 218 211 214 219 218 221 225 232 236 238 243 250 252 264 281 288 292 311 307 308 321 335 331 322 310 292 281 276 280 284 287 289 290 291 294 296 300 303 306 304
239 242 243 240 233 226 222 224 222 220 228 235 236 246 250 253 269 277 282 306 305 316 320 319 311 314 314 301 279 268 268 273 280 284 287 291 294 297 300 304 307 306 299
239 247 251 249 244 239 230 220 223 222 221 231 236 237 252 266 277 276 290 297 301 306 320 326 324 326 307 305 295 285 280 278 279 282 286 289 292 296 298 301 305 306 306
250 251 257 257 243 236 233 224 213 213 215 220 233 247 248 263 263 275 283 299 303 302 306 313 324 321 322 304 298 290 285 286 286 286 285 283 284 288 291 295 301 305 305
294 284 271 258 247 240 232 219 202 196 194 203 219 226 238 252 270 274 282 290 297 297 301 306 312 325 324 313 303 296 289 285 284 284 285 284 282 280 280 282 284 290 298
292 284 276 267 256 236 215 203 183 187 193 198 215 227 231 240 245 255 262 284 286 275 277 284 295 308 322 319 309 299 296 291 287 283 280 278 278 276 275 275 275 273 270
314 304 274 248 234 196 186 176 173 186 183 189 187 201 224 253 252 260 242 259 272 271 262 277 272 299 309 313 311 293 294 297 294 287 282 280 277 276 276 274 272 269 267
42 47 59 81 108 141 160 161 167 175 173 172 161 85 300 295 297 291 289 270 266 274 269 262 274 286 294 298 305 308 308 308 302 300 293 287 280 273 270 271 273 273 270
91 94 99 111 116 129 144 153 158 150 163 162 173 290 294 306 303 296 293 1 351 340 319 294 275 286 296 297 296 297 295 299 307 308 302 300 293 286 279 271 266 268 271
108 106 104 108 111 116 123 130 134 137 143 148 139 126 132 334 340 348 329 334 332 330 320 314 324 312 310 309 308 302 299 298 299 298 302 303 298 290 283 279 274 268 264
114 112 113 113 114 118 121 126 129 129 118 118 106 94 81 40 347 339 331 319 315 312 316 314 313 311 308 305 305 298 299 298 292 293 297 297 293 302 300 291 281 273 268
122 121 118 116 118 121 121 121 118 113 111 106 99 98 86 69 52 16 344 337 332 327 313 311 312 315 314 320 325 327 323 312 297 299 290 288 291 294 290 293 300 298 287
119 116 112 110 110 108 106 107 110 112 108 104 98 87 73 52 37 26 16 10 0 353 349 350 346 340 342 344 346 358 336 321 324 300 304 294 294 292 292 287 284 283 285
117 114 112 110 110 110 114 117 117 119 121 108 95 78 57 45 32 27 23 19 15 14 9 9 7 5 2 354 356 358 340 317 320 315 310 316 309 313 310 307 297 288 279
125 122 116 112 110 110 113 116 118 119 113 99 88 78 64 44 31 22 19 18 11 9 8 5 359 358 356 354 353 350 345 342 326 307 307 311 310 315 313 314 315 312 304
135 130 121 116 113 114 118 118 119 113 103 93 82 62 45 30 20 10 7 3 5 0 356 356 355 353 352 348 344 341 338 336 321 315 305 307 310 316 309 312 315 316 313